This is the latest recevied weather packets stored in our database for station/object W4KBW. If no packets are shown the sender has not sent any weather packets the latest 10 day(s).
| Time | Temp. | Humidity | Pressure | Rain* | Wind** | Luminosity | Snow |
|---|---|---|---|---|---|---|---|
| 1777738300 | 30.56° C | 100% | 1009.5 hPa | 0 mm | - | - | - |
| 1777738191 | 30.56° C | 100% | 1009.5 hPa | 0 mm | - | - | - |
| 1777737261 | 30° C | 100% | 1009.6 hPa | 0 mm | - | - | - |
| 1777736361 | 30° C | 100% | 1009.6 hPa | 0 mm | - | - | - |
| 1777735675 | 28.33° C | 100% | 1009.6 hPa | 0 mm | - | - | - |
| 1777735461 | 28.33° C | 100% | 1009.6 hPa | 0 mm | - | - | - |
| 1777734561 | 27.78° C | 100% | 1010.1 hPa | 0 mm | - | - | - |
| 1777733893 | 27.22° C | 100% | 1010.2 hPa | 0 mm | - | - | - |
| 1777733631 | 27.22° C | 100% | 1010.2 hPa | 0 mm | - | - | - |
| 1777732731 | 27.78° C | 100% | 1010.2 hPa | 0 mm | - | - | - |
| 1777732001 | 27.22° C | 100% | 1010.2 hPa | 0 mm | - | - | - |
| 1777731801 | 27.22° C | 100% | 1010.2 hPa | 0 mm | - | - | - |
| 1777731112 | 26.67° C | 100% | 1010.3 hPa | 0 mm | - | - | - |
| 1777730901 | 26.67° C | 100% | 1010.3 hPa | 0 mm | - | - | - |
| 1777730001 | 26.11° C | 100% | 1010.1 hPa | 0 mm | - | - | - |
| 1777729101 | 25.56° C | 100% | 1010 hPa | 0 mm | - | - | - |
| 1777728528 | 25.56° C | 100% | 1009.5 hPa | 0 mm | - | - | - |
| 1777728201 | 25.56° C | 100% | 1009.5 hPa | 0 mm | - | - | - |
| 1777727301 | 25.56° C | 100% | 1009.4 hPa | 0 mm | - | - | - |
| 1777726632 | 24.44° C | 100% | 1009.3 hPa | 0 mm | - | - | - |
| 1777726371 | 24.44° C | 100% | 1009.3 hPa | 0 mm | - | - | - |
| 1777725729 | 23.89° C | 100% | 1009.2 hPa | 0 mm | - | - | - |
| 1777725471 | 23.89° C | 100% | 1009.2 hPa | 0 mm | - | - | - |
| 1777724541 | 23.33° C | 100% | 1009.2 hPa | 0 mm | - | - | - |
| 1777723747 | 23.33° C | 100% | 1009 hPa | 0 mm | - | - | - |
* Rain latest hour (hover to see other rain measurements)
** Current wind speed in m/s (hover to see current wind gust speed)